Location: Unspecified
(0.0000°N, 0.0000°E)
Time: 23:19:59
(UTC+01:00)

Iridium 75 - Visible Passes

Search period start: 22 November 2017 00:00
Search period end: 02 December 2017 00:00
Orbit: 776 x 779 km, 86.4° (Epoch: 22 November)

Date Brightness Start Highest point End Pass type
(mag) Time Alt. Az. Time Alt. Az. Time Alt. Az.
22 Nov 9.0 06:23:11 10° SE 06:26:17 16° E 06:29:22 10° NE visible
23 Nov 8.5 20:02:41 10° NW 20:06:40 22° W 20:10:40 10° SW visible
24 Nov 7.1 19:28:11 10° NNW 19:33:12 49° W 19:38:14 10° SSW visible
25 Nov 8.6 06:22:04 10° SE 06:26:20 26° E 06:30:35 10° NE visible
26 Nov 9.3 05:51:24 10° ESE 05:52:53 11° E 05:54:21 10° ENE visible
26 Nov 9.0 20:04:11 10° WNW 20:06:43 14° W 20:09:15 10° WSW visible
27 Nov 8.1 19:28:44 10° NNW 19:33:15 30° W 19:37:48 10° SSW visible
28 Nov 7.6 06:21:30 10° SSE 06:26:23 41° E 06:31:16 10° NNE visible
29 Nov 8.8 05:49:20 10° SE 05:52:56 19° E 05:56:30 10° NE visible
30 Nov 8.8 19:29:43 10° NW 19:33:18 19° W 19:36:55 10° SW visible
01 Dec 6.5 06:21:15 10° S 06:26:26 68° E 06:31:36 10° N visible
